This is the latest recevied weather packets stored in our database for station/object 4S6DRJ-13. If no packets are shown the sender has not sent any weather packets the latest 10 day(s).
| Time | Temp. | Humidity | Pressure | Rain* | Wind** | Luminosity | Snow |
|---|---|---|---|---|---|---|---|
| 1788416926 | 31.11° C | 71% | 1009.2 hPa | 0 mm | 2.68 m/s, 205° | 508 W/m² | - |
| 1788416865 | 31.11° C | 71% | 1009.4 hPa | 0 mm | 0.89 m/s, 330° | 1143 W/m² | - |
| 1788416804 | 31.11° C | 71% | 1009.2 hPa | 0 mm | 0.89 m/s, 100° | 1134 W/m² | - |
| 1788416743 | 31.11° C | 71% | 1009.3 hPa | 0 mm | 1.34 m/s, 299° | 1142 W/m² | - |
| 1788416682 | 31.11° C | 71% | 1009.7 hPa | 0 mm | 2.24 m/s, 312° | 1136 W/m² | - |
| 1788416621 | 31.11° C | 70% | 1009.4 hPa | 0 mm | 1.79 m/s, 196° | 1134 W/m² | - |
| 1788416560 | 31.67° C | 69% | 1009.3 hPa | 0 mm | 2.24 m/s, 222° | 296 W/m² | - |
| 1788416499 | 31.67° C | 68% | 1009.3 hPa | 0 mm | 2.68 m/s, 358° | 308 W/m² | - |
| 1788416437 | 31.67° C | 69% | 1009.3 hPa | 0 mm | 2.24 m/s, 351° | 1134 W/m² | - |
| 1788416377 | 31.67° C | 69% | 1009.3 hPa | 0 mm | 2.24 m/s, 311° | 1128 W/m² | - |
| 1788416316 | 31.67° C | 69% | 1009.5 hPa | 0 mm | 2.24 m/s, 235° | 1129 W/m² | - |
| 1788416255 | 31.67° C | 70% | 1009.4 hPa | 0 mm | 0.89 m/s, 201° | 1129 W/m² | - |
| 1788416194 | 31.67° C | 69% | 1009.4 hPa | 0 mm | 0.89 m/s, 229° | 357 W/m² | - |
| 1788416133 | 31.67° C | 68% | 1009.4 hPa | 0 mm | 2.24 m/s, 350° | 694 W/m² | - |
| 1788416072 | 31.67° C | 69% | 1009.6 hPa | 0 mm | 2.24 m/s, 324° | 1143 W/m² | - |
| 1788416011 | 31.67° C | 68% | 1009.7 hPa | 0 mm | 3.13 m/s, 227° | 364 W/m² | - |
| 1788415828 | 31.67° C | 68% | 1009.7 hPa | 0 mm | 1.79 m/s, 123° | 1134 W/m² | - |
| 1788415767 | 31.67° C | 67% | 1009.6 hPa | 0 mm | 0.45 m/s, 219° | 1130 W/m² | - |
| 1788415706 | 31.67° C | 68% | 1009.4 hPa | 0 mm | 1.79 m/s, 266° | 807 W/m² | - |
| 1788415645 | 31.67° C | 69% | 1009.6 hPa | 0 mm | 1.34 m/s, 291° | 1138 W/m² | - |
| 1788415584 | 31.67° C | 68% | 1009.7 hPa | 0 mm | 2.68 m/s, 272° | 1134 W/m² | - |
| 1788415523 | 31.11° C | 69% | 1009.6 hPa | 0 mm | 1.34 m/s, 175° | 546 W/m² | - |
| 1788415462 | 31.11° C | 71% | 1009.6 hPa | 0 mm | 1.34 m/s, 257° | 604 W/m² | - |
| 1788415401 | 31.11° C | 70% | 1009.8 hPa | 0 mm | 1.34 m/s, 255° | 1126 W/m² | - |
| 1788415340 | 31.11° C | 68% | 1009.5 hPa | 0 mm | 1.34 m/s, 174° | 1124 W/m² | - |
* Rain latest hour (hover to see other rain measurements)
** Current wind speed in m/s (hover to see current wind gust speed)